Year,Month,Day,Hour,Minute,Value (Times are PST for temperature in C)
2009,06,30,00,00,12.60
2009,06,30,00,01,12.60
2009,06,30,00,02,12.60
2009,06,30,00,03,12.60
2009,06,30,00,04,12.50
2009,06,30,00,05,12.50
2009,06,30,00,06,12.50
2009,06,30,00,07,12.50
2009,06,30,00,08,12.50
2009,06,30,00,09,12.40
2009,06,30,00,10,12.40
2009,06,30,00,11,12.40
2009,06,30,00,12,12.40
2009,06,30,00,13,12.40
2009,06,30,00,14,12.30
2009,06,30,00,15,12.30
2009,06,30,00,16,12.30
2009,06,30,00,17,12.30
2009,06,30,00,18,12.30
2009,06,30,00,19,12.30
2009,06,30,00,20,12.30
2009,06,30,00,21,12.30
2009,06,30,00,22,12.30
2009,06,30,00,23,12.30
2009,06,30,00,24,12.30
2009,06,30,00,25,12.30
2009,06,30,00,26,12.30
2009,06,30,00,27,12.30
2009,06,30,00,28,12.30
2009,06,30,00,29,12.30
2009,06,30,00,30,12.30
2009,06,30,00,31,12.30
2009,06,30,00,32,12.30
2009,06,30,00,33,12.30
2009,06,30,00,34,12.30
2009,06,30,00,35,12.30
2009,06,30,00,36,12.30
2009,06,30,00,37,12.30
2009,06,30,00,38,12.30
2009,06,30,00,39,12.30
2009,06,30,00,40,12.30
2009,06,30,00,41,12.30
2009,06,30,00,42,12.30
2009,06,30,00,43,12.30
2009,06,30,00,44,12.30
2009,06,30,00,45,12.30
2009,06,30,00,46,12.30
2009,06,30,00,47,12.30
2009,06,30,00,48,12.30
2009,06,30,00,49,12.30
2009,06,30,00,50,12.20
2009,06,30,00,51,12.20
2009,06,30,00,52,12.20
2009,06,30,00,53,12.20
2009,06,30,00,54,12.20
2009,06,30,00,55,12.20
2009,06,30,00,56,12.20
2009,06,30,00,57,12.10
2009,06,30,00,58,12.10
2009,06,30,00,59,12.10
2009,06,30,01,00,12.10
2009,06,30,01,01,12.10
2009,06,30,01,02,12.10
2009,06,30,01,03,12.10
2009,06,30,01,04,12.10
2009,06,30,01,05,12.00
2009,06,30,01,06,12.00
2009,06,30,01,07,12.00
2009,06,30,01,08,12.00
2009,06,30,01,09,12.00
2009,06,30,01,10,12.00
2009,06,30,01,11,12.00
2009,06,30,01,12,12.00
2009,06,30,01,13,11.90
2009,06,30,01,14,11.90
2009,06,30,01,15,11.90
2009,06,30,01,16,11.90
2009,06,30,01,17,11.90
2009,06,30,01,18,11.90
2009,06,30,01,19,11.90
2009,06,30,01,20,11.80
2009,06,30,01,21,11.80
2009,06,30,01,22,11.80
2009,06,30,01,23,11.80
2009,06,30,01,24,11.80
2009,06,30,01,25,11.80
2009,06,30,01,26,11.80
2009,06,30,01,27,11.70
2009,06,30,01,28,11.70
2009,06,30,01,29,11.60
2009,06,30,01,30,11.60
2009,06,30,01,31,11.60
2009,06,30,01,32,11.60
2009,06,30,01,33,11.60
2009,06,30,01,34,11.50
2009,06,30,01,35,11.40
2009,06,30,01,36,11.40
2009,06,30,01,37,11.40
2009,06,30,01,38,11.40
2009,06,30,01,39,11.30
2009,06,30,01,40,11.30
2009,06,30,01,41,11.30
2009,06,30,01,42,11.20
2009,06,30,01,43,11.20
2009,06,30,01,44,11.20
2009,06,30,01,45,11.20
2009,06,30,01,46,11.10
2009,06,30,01,47,11.10
2009,06,30,01,48,11.10
2009,06,30,01,49,11.10
2009,06,30,01,50,11.10
2009,06,30,01,51,11.10
2009,06,30,01,52,11.10
2009,06,30,01,53,11.10
2009,06,30,01,54,11.10
2009,06,30,01,55,11.10
2009,06,30,01,56,11.10
2009,06,30,01,57,11.10
2009,06,30,01,58,11.10
2009,06,30,01,59,11.10
2009,06,30,02,00,11.00
2009,06,30,02,01,11.00
2009,06,30,02,02,10.90
2009,06,30,02,03,10.90
2009,06,30,02,04,10.90
2009,06,30,02,05,10.90
2009,06,30,02,06,10.90
2009,06,30,02,07,10.90
2009,06,30,02,08,10.90
2009,06,30,02,09,10.90
2009,06,30,02,10,10.90
2009,06,30,02,11,10.90
2009,06,30,02,12,10.90
2009,06,30,02,13,10.90
2009,06,30,02,14,10.80
2009,06,30,02,15,10.80
2009,06,30,02,16,10.80
2009,06,30,02,17,10.70
2009,06,30,02,18,10.70
2009,06,30,02,19,10.70
2009,06,30,02,20,10.70
2009,06,30,02,21,10.60
2009,06,30,02,22,10.60
2009,06,30,02,23,10.60
2009,06,30,02,24,10.60
2009,06,30,02,25,10.60
2009,06,30,02,26,10.60
2009,06,30,02,27,10.60
2009,06,30,02,28,10.50
2009,06,30,02,29,10.40
2009,06,30,02,30,10.40
2009,06,30,02,31,10.40
2009,06,30,02,32,10.40
2009,06,30,02,33,10.40
2009,06,30,02,34,10.40
2009,06,30,02,35,10.40
2009,06,30,02,36,10.40
2009,06,30,02,37,10.30
2009,06,30,02,38,10.30
2009,06,30,02,39,10.30
2009,06,30,02,40,10.30
2009,06,30,02,41,10.30
2009,06,30,02,42,10.30
2009,06,30,02,43,10.20
2009,06,30,02,44,10.20
2009,06,30,02,45,10.20
2009,06,30,02,46,10.20
2009,06,30,02,47,10.20
2009,06,30,02,48,10.20
2009,06,30,02,49,10.20
2009,06,30,02,50,10.20
2009,06,30,02,51,10.20
2009,06,30,02,52,10.10
2009,06,30,02,53,10.10
2009,06,30,02,54,10.10
2009,06,30,02,55,10.10
2009,06,30,02,56,10.10
2009,06,30,02,57,10.10
2009,06,30,02,58,10.10
2009,06,30,02,59,10.10
2009,06,30,03,00,10.10
2009,06,30,03,01,10.10
2009,06,30,03,02,10.10
2009,06,30,03,03,10.10
2009,06,30,03,04,10.10
2009,06,30,03,05,10.10
2009,06,30,03,06,10.10
2009,06,30,03,07,10.10
2009,06,30,03,08,10.10
2009,06,30,03,09,10.10
2009,06,30,03,10,10.10
2009,06,30,03,11,10.10
2009,06,30,03,12,10.10
2009,06,30,03,13,10.10
2009,06,30,03,14,10.10
2009,06,30,03,15,10.10
2009,06,30,03,16,10.10
2009,06,30,03,17,10.00
2009,06,30,03,18,9.90
2009,06,30,03,19,9.90
2009,06,30,03,20,9.90
2009,06,30,03,21,9.90
2009,06,30,03,22,9.90
2009,06,30,03,23,9.90
2009,06,30,03,24,9.90
2009,06,30,03,25,9.90
2009,06,30,03,26,9.90
2009,06,30,03,27,9.90
2009,06,30,03,28,9.90
2009,06,30,03,29,9.90
2009,06,30,03,30,9.90
2009,06,30,03,31,9.90
2009,06,30,03,32,9.80
2009,06,30,03,33,9.80
2009,06,30,03,34,9.80
2009,06,30,03,35,9.70
2009,06,30,03,36,9.70
2009,06,30,03,37,9.70
2009,06,30,03,38,9.70
2009,06,30,03,39,9.70
2009,06,30,03,40,9.70
2009,06,30,03,41,9.70
2009,06,30,03,42,9.70
2009,06,30,03,43,9.70
2009,06,30,03,44,9.70
2009,06,30,03,45,9.70
2009,06,30,03,46,9.70
2009,06,30,03,47,9.70
2009,06,30,03,48,9.70
2009,06,30,03,49,9.70
2009,06,30,03,50,9.60
2009,06,30,03,51,9.60
2009,06,30,03,52,9.60
2009,06,30,03,53,9.60
2009,06,30,03,54,9.60
2009,06,30,03,55,9.50
2009,06,30,03,56,9.50
2009,06,30,03,57,9.50
2009,06,30,03,58,9.50
2009,06,30,03,59,9.50
2009,06,30,04,00,9.50
2009,06,30,04,01,9.40
2009,06,30,04,02,9.40
2009,06,30,04,03,9.40
2009,06,30,04,04,9.40
2009,06,30,04,05,9.40
2009,06,30,04,06,9.40
2009,06,30,04,07,9.40
2009,06,30,04,08,9.40
2009,06,30,04,09,9.30
2009,06,30,04,10,9.30
2009,06,30,04,11,9.30
2009,06,30,04,12,9.30
2009,06,30,04,13,9.30
2009,06,30,04,14,9.30
2009,06,30,04,15,9.30
2009,06,30,04,16,9.20
2009,06,30,04,17,9.20
2009,06,30,04,18,9.20
2009,06,30,04,19,9.20
2009,06,30,04,20,9.20
2009,06,30,04,21,9.20
2009,06,30,04,22,9.20
2009,06,30,04,23,9.20
2009,06,30,04,24,9.20
2009,06,30,04,25,9.20
2009,06,30,04,26,9.20
2009,06,30,04,27,9.20
2009,06,30,04,28,9.10
2009,06,30,04,29,9.10
2009,06,30,04,30,9.10
2009,06,30,04,31,9.10
2009,06,30,04,32,9.10
2009,06,30,04,33,9.10
2009,06,30,04,34,9.00
2009,06,30,04,35,9.00
2009,06,30,04,36,9.00
2009,06,30,04,37,9.00
2009,06,30,04,38,9.00
2009,06,30,04,39,9.00
2009,06,30,04,40,9.00
2009,06,30,04,41,9.00
2009,06,30,04,42,9.00
2009,06,30,04,43,9.00
2009,06,30,04,44,8.90
2009,06,30,04,45,8.90
2009,06,30,04,46,8.90
2009,06,30,04,47,8.90
2009,06,30,04,48,8.90
2009,06,30,04,49,8.90
2009,06,30,04,50,8.90
2009,06,30,04,51,8.80
2009,06,30,04,52,8.80
2009,06,30,04,53,8.80
2009,06,30,04,54,8.80
2009,06,30,04,55,8.80
2009,06,30,04,56,8.80
2009,06,30,04,57,8.70
2009,06,30,04,58,8.70
2009,06,30,04,59,8.70
2009,06,30,05,00,8.70
2009,06,30,05,01,8.70
2009,06,30,05,02,8.70
2009,06,30,05,03,8.70
2009,06,30,05,04,8.70
2009,06,30,05,05,8.70
2009,06,30,05,06,8.70
2009,06,30,05,07,8.70
2009,06,30,05,08,8.70
2009,06,30,05,09,8.70
2009,06,30,05,10,8.70
2009,06,30,05,11,8.70
2009,06,30,05,12,8.70
2009,06,30,05,13,8.70
2009,06,30,05,14,8.70
2009,06,30,05,15,8.60
2009,06,30,05,16,8.60
2009,06,30,05,17,8.60
2009,06,30,05,18,8.60
2009,06,30,05,19,8.60
2009,06,30,05,20,8.60
2009,06,30,05,21,8.60
2009,06,30,05,22,8.60
2009,06,30,05,23,8.60
2009,06,30,05,24,8.60
2009,06,30,05,25,8.60
2009,06,30,05,26,8.60
2009,06,30,05,27,8.70
2009,06,30,05,28,8.70
2009,06,30,05,29,8.70
2009,06,30,05,30,8.70
2009,06,30,05,31,8.70
2009,06,30,05,32,8.70
2009,06,30,05,33,8.70
2009,06,30,05,34,8.70
2009,06,30,05,35,8.70
2009,06,30,05,36,8.70
2009,06,30,05,37,8.70
2009,06,30,05,38,8.70
2009,06,30,05,39,8.70
2009,06,30,05,40,8.70
2009,06,30,05,41,8.70
2009,06,30,05,42,8.70
2009,06,30,05,43,8.70
2009,06,30,05,44,8.70
2009,06,30,05,45,8.70
2009,06,30,05,46,8.70
2009,06,30,05,47,8.70
2009,06,30,05,48,8.70
2009,06,30,05,49,8.80
2009,06,30,05,50,8.80
2009,06,30,05,51,8.90
2009,06,30,05,52,8.90
2009,06,30,05,53,8.90
2009,06,30,05,54,8.90
2009,06,30,05,55,8.90
2009,06,30,05,56,9.00
2009,06,30,05,57,9.00
2009,06,30,05,58,9.00
2009,06,30,05,59,9.00
2009,06,30,06,00,9.10
2009,06,30,06,01,9.10
2009,06,30,06,02,9.10
2009,06,30,06,03,9.10
2009,06,30,06,04,9.20
2009,06,30,06,05,9.20
2009,06,30,06,06,9.20
2009,06,30,06,07,9.20
2009,06,30,06,08,9.20
2009,06,30,06,09,9.30
2009,06,30,06,10,9.40
2009,06,30,06,11,9.40
2009,06,30,06,12,9.50
2009,06,30,06,13,9.60
2009,06,30,06,14,9.70
2009,06,30,06,15,9.70
2009,06,30,06,16,9.80
2009,06,30,06,17,9.90
2009,06,30,06,18,10.00
2009,06,30,06,19,10.10
2009,06,30,06,20,10.20
2009,06,30,06,21,10.30
2009,06,30,06,22,10.40
2009,06,30,06,23,10.40
2009,06,30,06,24,10.50
2009,06,30,06,25,10.60
2009,06,30,06,26,10.70
2009,06,30,06,27,10.80
2009,06,30,06,28,10.90
2009,06,30,06,29,10.90
2009,06,30,06,30,11.00
2009,06,30,06,31,11.10
2009,06,30,06,32,11.20
2009,06,30,06,33,11.30
2009,06,30,06,34,11.40
2009,06,30,06,35,11.50
2009,06,30,06,36,11.60
2009,06,30,06,37,11.70
2009,06,30,06,38,11.80
2009,06,30,06,39,11.80
2009,06,30,06,40,11.80
2009,06,30,06,41,11.90
2009,06,30,06,42,12.00
2009,06,30,06,43,12.00
2009,06,30,06,44,12.10
2009,06,30,06,45,12.10
2009,06,30,06,46,12.20
2009,06,30,06,47,12.30
2009,06,30,06,48,12.30
2009,06,30,06,49,12.30
2009,06,30,06,50,12.40
2009,06,30,06,51,12.40
2009,06,30,06,52,12.40
2009,06,30,06,53,12.40
2009,06,30,06,54,12.40
2009,06,30,06,55,12.40
2009,06,30,06,56,12.40
2009,06,30,06,57,12.40
2009,06,30,06,58,12.40
2009,06,30,06,59,12.50
2009,06,30,07,00,12.50
2009,06,30,07,01,12.60
2009,06,30,07,02,12.60
2009,06,30,07,03,12.60
2009,06,30,07,04,12.70
2009,06,30,07,05,12.70
2009,06,30,07,06,12.80
2009,06,30,07,07,12.80
2009,06,30,07,08,12.90
2009,06,30,07,09,12.90
2009,06,30,07,10,13.00
2009,06,30,07,11,13.00
2009,06,30,07,12,13.00
2009,06,30,07,13,12.90
2009,06,30,07,14,12.90
2009,06,30,07,15,12.80
2009,06,30,07,16,12.80
2009,06,30,07,17,12.80
2009,06,30,07,18,12.90
2009,06,30,07,19,13.00
2009,06,30,07,20,13.10
2009,06,30,07,21,13.10
2009,06,30,07,22,13.30
2009,06,30,07,23,13.30
2009,06,30,07,24,13.30
2009,06,30,07,25,13.30
2009,06,30,07,26,13.50
2009,06,30,07,27,13.70
2009,06,30,07,28,13.70
2009,06,30,07,29,13.80
2009,06,30,07,30,13.90
2009,06,30,07,31,14.00
2009,06,30,07,32,14.00
2009,06,30,07,33,14.10
2009,06,30,07,34,14.20
2009,06,30,07,35,14.20
2009,06,30,07,36,14.20
2009,06,30,07,37,14.30
2009,06,30,07,38,14.30
2009,06,30,07,39,14.40
2009,06,30,07,40,14.40
2009,06,30,07,41,14.50
2009,06,30,07,42,14.50
2009,06,30,07,43,14.60
2009,06,30,07,44,14.70
2009,06,30,07,45,14.80
2009,06,30,07,46,14.80
2009,06,30,07,47,14.90
2009,06,30,07,48,14.90
2009,06,30,07,49,14.90
2009,06,30,07,50,14.90
2009,06,30,07,51,15.00
2009,06,30,07,52,15.00
2009,06,30,07,53,15.00
2009,06,30,07,54,14.90
2009,06,30,07,55,14.90
2009,06,30,07,56,14.90
2009,06,30,07,57,14.90
2009,06,30,07,58,14.90
2009,06,30,07,59,14.90
2009,06,30,08,00,14.90
2009,06,30,08,01,14.90
2009,06,30,08,02,14.80
2009,06,30,08,03,14.80
2009,06,30,08,04,14.90
2009,06,30,08,05,14.90
2009,06,30,08,06,15.00
2009,06,30,08,07,15.00
2009,06,30,08,08,15.00
2009,06,30,08,09,14.90
2009,06,30,08,10,15.00
2009,06,30,08,11,15.00
2009,06,30,08,12,15.10
2009,06,30,08,13,15.10
2009,06,30,08,14,15.20
2009,06,30,08,15,15.20
2009,06,30,08,16,15.20
2009,06,30,08,17,15.10
2009,06,30,08,18,15.10
2009,06,30,08,19,15.10
2009,06,30,08,20,15.20
2009,06,30,08,21,15.20
2009,06,30,08,22,15.30
2009,06,30,08,23,15.30
2009,06,30,08,24,15.30
2009,06,30,08,25,15.30
2009,06,30,08,26,15.30
2009,06,30,08,27,15.30
2009,06,30,08,28,15.40
2009,06,30,08,29,15.40
2009,06,30,08,30,15.50
2009,06,30,08,31,15.50
2009,06,30,08,32,15.60
2009,06,30,08,33,15.60
2009,06,30,08,34,15.70
2009,06,30,08,35,15.70
2009,06,30,08,36,15.80
2009,06,30,08,37,15.80
2009,06,30,08,38,15.80
2009,06,30,08,39,15.90
2009,06,30,08,40,16.00
2009,06,30,08,41,16.10
2009,06,30,08,42,16.10
2009,06,30,08,43,16.20
2009,06,30,08,44,16.20
2009,06,30,08,45,16.20
2009,06,30,08,46,16.20
2009,06,30,08,47,16.20
2009,06,30,08,48,16.20
2009,06,30,08,49,16.20
2009,06,30,08,50,16.30
2009,06,30,08,51,16.30
2009,06,30,08,52,16.30
2009,06,30,08,53,16.20
2009,06,30,08,54,16.20
2009,06,30,08,55,16.20
2009,06,30,08,56,16.20
2009,06,30,08,57,16.10
2009,06,30,08,58,16.10
2009,06,30,08,59,16.10
2009,06,30,09,00,15.90
2009,06,30,09,01,15.80
2009,06,30,09,02,15.80
2009,06,30,09,03,15.90
2009,06,30,09,04,16.00
2009,06,30,09,05,16.10
2009,06,30,09,06,16.20
2009,06,30,09,07,16.30
2009,06,30,09,08,16.40
2009,06,30,09,09,16.40
2009,06,30,09,10,16.40
2009,06,30,09,11,16.40
2009,06,30,09,12,16.40
2009,06,30,09,13,16.40
2009,06,30,09,14,16.30
2009,06,30,09,15,16.30
2009,06,30,09,16,16.30
2009,06,30,09,17,16.40
2009,06,30,09,18,16.50
2009,06,30,09,19,16.60
2009,06,30,09,20,16.70
2009,06,30,09,21,16.70
2009,06,30,09,22,16.70
2009,06,30,09,23,16.70
2009,06,30,09,24,16.60
2009,06,30,09,25,16.50
2009,06,30,09,26,16.30
2009,06,30,09,27,16.30
2009,06,30,09,28,16.10
2009,06,30,09,29,16.10
2009,06,30,09,30,16.00
2009,06,30,09,31,15.90
2009,06,30,09,32,16.00
2009,06,30,09,33,16.10
2009,06,30,09,34,16.10
2009,06,30,09,35,16.10
2009,06,30,09,36,16.10
2009,06,30,09,37,16.10
2009,06,30,09,38,16.10
2009,06,30,09,39,16.20
2009,06,30,09,40,16.30
2009,06,30,09,41,16.40
2009,06,30,09,42,16.60
2009,06,30,09,43,16.60
2009,06,30,09,44,16.70
2009,06,30,09,45,16.70
2009,06,30,09,46,16.70
2009,06,30,09,47,16.70
2009,06,30,09,48,16.70
2009,06,30,09,49,16.60
2009,06,30,09,50,16.60
2009,06,30,09,51,16.60
2009,06,30,09,52,16.60
2009,06,30,09,53,16.60
2009,06,30,09,54,16.70
2009,06,30,09,55,16.80
2009,06,30,09,56,16.90
2009,06,30,09,57,16.90
2009,06,30,09,58,16.90
2009,06,30,09,59,16.80
2009,06,30,10,00,16.80
2009,06,30,10,01,16.90
2009,06,30,10,02,16.90
2009,06,30,10,03,16.90
2009,06,30,10,04,17.00
2009,06,30,10,05,17.00
2009,06,30,10,06,17.10
2009,06,30,10,07,17.20
2009,06,30,10,08,17.20
2009,06,30,10,09,17.10
2009,06,30,10,10,17.10
2009,06,30,10,11,17.00
2009,06,30,10,12,17.00
2009,06,30,10,13,16.80
2009,06,30,10,14,16.70
2009,06,30,10,15,16.70
2009,06,30,10,16,16.70
2009,06,30,10,17,16.80
2009,06,30,10,18,16.90
2009,06,30,10,19,16.90
2009,06,30,10,20,17.00
2009,06,30,10,21,17.00
2009,06,30,10,22,16.80
2009,06,30,10,23,16.70
2009,06,30,10,24,16.70
2009,06,30,10,25,16.70
2009,06,30,10,26,16.70
2009,06,30,10,27,16.70
2009,06,30,10,28,16.70
2009,06,30,10,29,16.70
2009,06,30,10,30,16.70
2009,06,30,10,31,16.60
2009,06,30,10,32,16.60
2009,06,30,10,33,16.70
2009,06,30,10,34,16.70
2009,06,30,10,35,16.70
2009,06,30,10,36,16.70
2009,06,30,10,37,16.90
2009,06,30,10,38,17.00
2009,06,30,10,39,17.20
2009,06,30,10,40,17.40
2009,06,30,10,41,17.50
2009,06,30,10,42,17.60
2009,06,30,10,43,17.70
2009,06,30,10,44,17.80
2009,06,30,10,45,17.90
2009,06,30,10,46,17.90
2009,06,30,10,47,18.10
2009,06,30,10,48,18.20
2009,06,30,10,49,18.30
2009,06,30,10,50,18.20
2009,06,30,10,51,18.30
2009,06,30,10,52,18.30
2009,06,30,10,53,18.40
2009,06,30,10,54,18.40
2009,06,30,10,55,18.30
2009,06,30,10,56,18.20
2009,06,30,10,57,18.20
2009,06,30,10,58,18.10
2009,06,30,10,59,17.90
2009,06,30,11,00,17.80
2009,06,30,11,01,17.70
2009,06,30,11,02,17.70
2009,06,30,11,03,17.80
2009,06,30,11,04,17.90
2009,06,30,11,05,17.90
2009,06,30,11,06,18.00
2009,06,30,11,07,18.10
2009,06,30,11,08,18.00
2009,06,30,11,09,17.90
2009,06,30,11,10,17.90
2009,06,30,11,11,17.90
2009,06,30,11,12,18.00
2009,06,30,11,13,18.10
2009,06,30,11,14,18.20
2009,06,30,11,15,18.30
2009,06,30,11,16,18.30
2009,06,30,11,17,18.40
2009,06,30,11,18,18.40
2009,06,30,11,19,18.50
2009,06,30,11,20,18.60
2009,06,30,11,21,18.60
2009,06,30,11,22,18.60
2009,06,30,11,23,18.50
2009,06,30,11,24,18.40
2009,06,30,11,25,18.30
2009,06,30,11,26,18.30
2009,06,30,11,27,18.30
2009,06,30,11,28,18.30
2009,06,30,11,29,18.30
2009,06,30,11,30,18.40
2009,06,30,11,31,18.50
2009,06,30,11,32,18.70
2009,06,30,11,33,18.90
2009,06,30,11,34,18.80
2009,06,30,11,35,18.60
2009,06,30,11,36,18.50
2009,06,30,11,37,18.40
2009,06,30,11,38,18.30
2009,06,30,11,39,18.20
2009,06,30,11,40,18.10
2009,06,30,11,41,18.10
2009,06,30,11,42,18.20
2009,06,30,11,43,18.20
2009,06,30,11,44,18.20
2009,06,30,11,45,18.20
2009,06,30,11,46,18.20
2009,06,30,11,47,18.20
2009,06,30,11,48,18.20
2009,06,30,11,49,18.20
2009,06,30,11,50,18.20
2009,06,30,11,51,18.20
2009,06,30,11,52,18.20
2009,06,30,11,53,18.20
2009,06,30,11,54,18.20
2009,06,30,11,55,18.10
2009,06,30,11,56,18.10
2009,06,30,11,57,18.10
2009,06,30,11,58,18.10
2009,06,30,11,59,18.10
2009,06,30,12,00,18.20
2009,06,30,12,01,18.20
2009,06,30,12,02,18.20
2009,06,30,12,03,18.20
2009,06,30,12,04,18.20
2009,06,30,12,05,18.20
2009,06,30,12,06,18.30
2009,06,30,12,07,18.30
2009,06,30,12,08,18.30
2009,06,30,12,09,18.40
2009,06,30,12,10,18.50
2009,06,30,12,11,18.60
2009,06,30,12,12,18.60
2009,06,30,12,13,18.50
2009,06,30,12,14,18.40
2009,06,30,12,15,18.30
2009,06,30,12,16,18.20
2009,06,30,12,17,18.20
2009,06,30,12,18,18.10
2009,06,30,12,19,18.10
2009,06,30,12,20,18.10
2009,06,30,12,21,18.20
2009,06,30,12,22,18.20
2009,06,30,12,23,18.10
2009,06,30,12,24,18.20
2009,06,30,12,25,18.30
2009,06,30,12,26,18.40
2009,06,30,12,27,18.50
2009,06,30,12,28,18.50
2009,06,30,12,29,18.50
2009,06,30,12,30,18.60
2009,06,30,12,31,18.60
2009,06,30,12,32,18.60
2009,06,30,12,33,18.60
2009,06,30,12,34,18.60
2009,06,30,12,35,18.60
2009,06,30,12,36,18.70
2009,06,30,12,37,18.80
2009,06,30,12,38,18.70
2009,06,30,12,39,18.70
2009,06,30,12,40,18.70
2009,06,30,12,41,18.60
2009,06,30,12,42,18.60
2009,06,30,12,43,18.70
2009,06,30,12,44,18.80
2009,06,30,12,45,18.90
2009,06,30,12,46,18.90
2009,06,30,12,47,18.90
2009,06,30,12,48,18.90
2009,06,30,12,49,18.90
2009,06,30,12,50,18.90
2009,06,30,12,51,19.00
2009,06,30,12,52,19.10
2009,06,30,12,53,19.10
2009,06,30,12,54,19.10
2009,06,30,12,55,19.00
2009,06,30,12,56,18.90
2009,06,30,12,57,18.90
2009,06,30,12,58,18.80
2009,06,30,12,59,18.90
2009,06,30,13,00,18.90
2009,06,30,13,01,19.00
2009,06,30,13,02,19.00
2009,06,30,13,03,18.90
2009,06,30,13,04,19.00
2009,06,30,13,05,19.10
2009,06,30,13,06,19.10
2009,06,30,13,07,19.20
2009,06,30,13,08,19.20
2009,06,30,13,09,19.30
2009,06,30,13,10,19.40
2009,06,30,13,11,19.50
2009,06,30,13,12,19.60
2009,06,30,13,13,19.60
2009,06,30,13,14,19.50
2009,06,30,13,15,19.50
2009,06,30,13,16,19.60
2009,06,30,13,17,19.60
2009,06,30,13,18,19.70
2009,06,30,13,19,19.60
2009,06,30,13,20,19.70
2009,06,30,13,21,19.70
2009,06,30,13,22,19.70
2009,06,30,13,23,19.60
2009,06,30,13,24,19.50
2009,06,30,13,25,19.40
2009,06,30,13,26,19.20
2009,06,30,13,27,19.10
2009,06,30,13,28,19.10
2009,06,30,13,29,19.10
2009,06,30,13,30,19.10
2009,06,30,13,31,19.10
2009,06,30,13,32,19.10
2009,06,30,13,33,19.10
2009,06,30,13,34,19.10
2009,06,30,13,35,19.10
2009,06,30,13,36,19.10
2009,06,30,13,37,19.10
2009,06,30,13,38,19.10
2009,06,30,13,39,19.10
2009,06,30,13,40,19.20
2009,06,30,13,41,19.30
2009,06,30,13,42,19.40
2009,06,30,13,43,19.50
2009,06,30,13,44,19.50
2009,06,30,13,45,19.50
2009,06,30,13,46,19.50
2009,06,30,13,47,19.60
2009,06,30,13,48,19.60
2009,06,30,13,49,19.70
2009,06,30,13,50,19.80
2009,06,30,13,51,19.80
2009,06,30,13,52,19.90
2009,06,30,13,53,19.90
2009,06,30,13,54,19.90
2009,06,30,13,55,19.90
2009,06,30,13,56,19.90
2009,06,30,13,57,19.90
2009,06,30,13,58,19.80
2009,06,30,13,59,19.70
2009,06,30,14,00,19.60
2009,06,30,14,01,19.60
2009,06,30,14,02,19.50
2009,06,30,14,03,19.50
2009,06,30,14,04,19.50
2009,06,30,14,05,19.50
2009,06,30,14,06,19.50
2009,06,30,14,07,19.50
2009,06,30,14,08,19.50
2009,06,30,14,09,19.60
2009,06,30,14,10,19.70
2009,06,30,14,11,19.80
2009,06,30,14,12,19.90
2009,06,30,14,13,19.90
2009,06,30,14,14,20.10
2009,06,30,14,15,20.00
2009,06,30,14,16,20.00
2009,06,30,14,17,20.20
2009,06,30,14,18,20.20
2009,06,30,14,19,20.20
2009,06,30,14,20,20.20
2009,06,30,14,21,20.20
2009,06,30,14,22,20.30
2009,06,30,14,23,20.30
2009,06,30,14,24,20.20
2009,06,30,14,25,20.20
2009,06,30,14,26,20.20
2009,06,30,14,27,20.20
2009,06,30,14,28,20.40
2009,06,30,14,29,20.50
2009,06,30,14,30,20.50
2009,06,30,14,31,20.50
2009,06,30,14,32,20.50
2009,06,30,14,33,20.50
2009,06,30,14,34,20.40
2009,06,30,14,35,20.40
2009,06,30,14,36,20.30
2009,06,30,14,37,20.20
2009,06,30,14,38,20.20
2009,06,30,14,39,20.20
2009,06,30,14,40,20.10
2009,06,30,14,41,19.90
2009,06,30,14,42,19.90
2009,06,30,14,43,20.10
2009,06,30,14,44,20.30
2009,06,30,14,45,20.50
2009,06,30,14,46,20.50
2009,06,30,14,47,20.50
2009,06,30,14,48,20.50
2009,06,30,14,49,20.50
2009,06,30,14,50,20.60
2009,06,30,14,51,20.60
2009,06,30,14,52,20.70
2009,06,30,14,53,20.70
2009,06,30,14,54,20.70
2009,06,30,14,55,20.70
2009,06,30,14,56,20.70
2009,06,30,14,57,20.90
2009,06,30,14,58,21.00
2009,06,30,14,59,20.90
2009,06,30,15,00,20.70
2009,06,30,15,01,20.50
2009,06,30,15,02,20.40
2009,06,30,15,03,20.50
2009,06,30,15,04,20.50
2009,06,30,15,05,20.60
2009,06,30,15,06,20.60
2009,06,30,15,07,20.50
2009,06,30,15,08,20.60
2009,06,30,15,09,20.80
2009,06,30,15,10,20.70
2009,06,30,15,11,20.70
2009,06,30,15,12,20.70
2009,06,30,15,13,20.80
2009,06,30,15,14,20.70
2009,06,30,15,15,20.60
2009,06,30,15,16,20.60
2009,06,30,15,17,20.60
2009,06,30,15,18,20.60
2009,06,30,15,19,20.50
2009,06,30,15,20,20.50
2009,06,30,15,21,20.60
2009,06,30,15,22,20.60
2009,06,30,15,23,20.80
2009,06,30,15,24,20.80
2009,06,30,15,25,20.90
2009,06,30,15,26,20.90
2009,06,30,15,27,21.00
2009,06,30,15,28,21.00
2009,06,30,15,29,20.90
2009,06,30,15,30,20.80
2009,06,30,15,31,20.80
2009,06,30,15,32,20.80
2009,06,30,15,33,20.80
2009,06,30,15,34,20.80
2009,06,30,15,35,20.90
2009,06,30,15,36,20.80
2009,06,30,15,37,20.80
2009,06,30,15,38,20.80
2009,06,30,15,39,20.80
2009,06,30,15,40,20.80
2009,06,30,15,41,20.70
2009,06,30,15,42,20.60
2009,06,30,15,43,20.60
2009,06,30,15,44,20.70
2009,06,30,15,45,20.80
2009,06,30,15,46,20.90
2009,06,30,15,47,20.90
2009,06,30,15,48,20.90
2009,06,30,15,49,20.80
2009,06,30,15,50,20.80
2009,06,30,15,51,20.70
2009,06,30,15,52,20.80
2009,06,30,15,53,20.80
2009,06,30,15,54,20.90
2009,06,30,15,55,21.00
2009,06,30,15,56,21.00
2009,06,30,15,57,21.00
2009,06,30,15,58,21.00
2009,06,30,15,59,20.90
2009,06,30,16,00,20.80
2009,06,30,16,01,20.80
2009,06,30,16,02,20.70
2009,06,30,16,03,20.70
2009,06,30,16,04,20.60
2009,06,30,16,05,20.50
2009,06,30,16,06,20.50
2009,06,30,16,07,20.50
2009,06,30,16,08,20.50
2009,06,30,16,09,20.70
2009,06,30,16,10,20.80
2009,06,30,16,11,20.80
2009,06,30,16,12,20.90
2009,06,30,16,13,20.90
2009,06,30,16,14,21.00
2009,06,30,16,15,21.10
2009,06,30,16,16,21.10
2009,06,30,16,17,21.00
2009,06,30,16,18,21.00
2009,06,30,16,19,21.00
2009,06,30,16,20,21.00
2009,06,30,16,21,21.10
2009,06,30,16,22,21.20
2009,06,30,16,23,21.30
2009,06,30,16,24,21.30
2009,06,30,16,25,21.30
2009,06,30,16,26,21.30
2009,06,30,16,27,21.40
2009,06,30,16,28,21.60
2009,06,30,16,29,21.60
2009,06,30,16,30,21.80
2009,06,30,16,31,21.90
2009,06,30,16,32,21.80
2009,06,30,16,33,21.50
2009,06,30,16,34,21.10
2009,06,30,16,35,20.70
2009,06,30,16,36,20.40
2009,06,30,16,37,20.20
2009,06,30,16,38,20.00
2009,06,30,16,39,19.90
2009,06,30,16,40,19.80
2009,06,30,16,41,19.70
2009,06,30,16,42,19.70
2009,06,30,16,43,19.60
2009,06,30,16,44,19.60
2009,06,30,16,45,19.50
2009,06,30,16,46,19.50
2009,06,30,16,47,19.50
2009,06,30,16,48,19.70
2009,06,30,16,49,19.70
2009,06,30,16,50,19.70
2009,06,30,16,51,19.90
2009,06,30,16,52,19.90
2009,06,30,16,53,20.00
2009,06,30,16,54,20.20
2009,06,30,16,55,20.20
2009,06,30,16,56,20.20
2009,06,30,16,57,20.20
2009,06,30,16,58,20.30
2009,06,30,16,59,20.30
2009,06,30,17,00,20.20
2009,06,30,17,01,20.20
2009,06,30,17,02,20.00
2009,06,30,17,03,19.90
2009,06,30,17,04,19.80
2009,06,30,17,05,19.80
2009,06,30,17,06,19.90
2009,06,30,17,07,19.90
2009,06,30,17,08,19.80
2009,06,30,17,09,19.90
2009,06,30,17,10,19.80
2009,06,30,17,11,19.60
2009,06,30,17,12,19.50
2009,06,30,17,13,19.40
2009,06,30,17,14,19.40
2009,06,30,17,15,19.30
2009,06,30,17,16,19.40
2009,06,30,17,17,19.50
2009,06,30,17,18,19.70
2009,06,30,17,19,19.70
2009,06,30,17,20,19.70
2009,06,30,17,21,19.70
2009,06,30,17,22,19.70
2009,06,30,17,23,19.60
2009,06,30,17,24,19.50
2009,06,30,17,25,19.50
2009,06,30,17,26,19.40
2009,06,30,17,27,19.40